Overview Statistics Trail Chart Weather Telemetry Raw packets
 

This is the latest recevied weather packets stored in our database for station/object DF1GD-10. If no packets are shown the sender has not sent any weather packets the latest 10 day(s).

<< 4 5 6 7 8 9 10 >>
Time Temp. Humidity Pressure Rain* Wind** Luminosity Snow
1788574424 17.78° C 66% 1019.1 hPa - - - -
1788573524 18.33° C 65% 1019 hPa - - - -
1788572624 19.44° C 55% 1018.7 hPa - - - -
1788571723 20° C 49% 1018.4 hPa - - - -
1788570823 20.56° C 47% 1018 hPa - - - -
1788569923 21.11° C 46% 1017.8 hPa - - - -
1788569023 21.11° C 45% 1017.9 hPa - - - -
1788568123 21.11° C 45% 1017.8 hPa - - - -
1788567223 21.11° C 45% 1017.6 hPa - - - -
1788566322 21.11° C 45% 1017.5 hPa - - - -
1788565422 21.11° C 44% 1017.4 hPa - - - -
1788564522 21.67° C 43% 1017.3 hPa - - - -
1788563622 21.67° C 42% 1017 hPa - - - -
1788562722 21.67° C 42% 1016.9 hPa - - - -
1788561822 22.22° C 41% 1016.8 hPa - - - -
1788560922 22.22° C 41% 1016.7 hPa - - - -
1788560021 22.22° C 41% 1016.6 hPa - - - -
1788559121 22.78° C 39% 1016.2 hPa - - - -
1788558221 23.33° C 33% 1015.9 hPa - - - -
1788557321 23.89° C 32% 1015.4 hPa - - - -
1788556421 23.89° C 32% 1015.4 hPa - - - -
1788555521 23.89° C 31% 1015.2 hPa - - - -
1788554621 23.89° C 31% 1015 hPa - - - -
1788553720 24.44° C 31% 1015 hPa - - - -
1788552820 24.44° C 31% 1015 hPa - - - -

* Rain since midnight (hover to see other rain measurements)
** Current wind speed in m/s (hover to see current wind gust speed)